Home > Weather > Riehen > Past weeks

Flag for Switzerland Past Weather in Riehen, Basel-Stadt, Switzerland — Yesterday and Last 2 Weeks

Now
69 °F

Partly sunny.


Feels Like: 69 °F
Forecast: 53 / 71 °F
Wind: 12 mph from West

Location: Bale-Mulhouse

Current Time: Jun 26, 2016 at 7:27:18 PM

Latest Report: Jun 26, 2016 at 6:00 PM


Visibility: 19 mi

Pressure: 30.07 "Hg

Humidity: 53%

Dew Point: 52 °F

Location of RiehenLocation

Past Weather in Riehen — Graph

°F

Riehen Temperature Yesterday

Maximum temperature yesterday: 74 °F (at 1:00 PM)
Minimum temperature yesterday: 60 °F (at 11:00 PM)
Average temperature yesterday: 68 °F

High & Low Weather Summary for the Past Weeks

 TemperatureHumidityPressure
High93 °F (Jun 23, 5:00 PM)100% (Jun 20, 7:00 AM)30.29 "Hg (Jun 20, 7:00 AM)
Low47 °F (Jun 20, 6:00 AM)42% (Jun 23, 4:00 PM)29.60 "Hg (Jun 15, 7:00 PM)
Average64 °F79%29.96 "Hg
* Reported Jun 11 6:00 PM — Jun 26 6:00 PM, Riehen, Weather by CustomWeather, © 2016

Note: Actual official high and low records may vary slightly from our data, if they occured in-between our weather recording intervals... More about our weather records

Advertising

Riehen Weather History for the Previous 24 Hours

Scroll right to see more
 ConditionsComfort  
Time TempWeatherWind HumidityBarometerVisibility
6:00 PM
Sun, Jun 26
69 °FPartly sunny.12 mph53%30.07 "Hg19 mi
5:00 PM71 °FScattered clouds.9 mph49%30.06 "Hg19 mi
4:00 PM71 °FPartly sunny.7 mph51%30.06 "Hg19 mi
3:00 PM71 °FScattered clouds.8 mph51%30.06 "Hg19 mi
2:00 PM72 °FScattered clouds.5 mph45%30.07 "Hg19 mi
1:00 PM71 °FPartly sunny.3 mph51%30.08 "Hg19 mi
12:00 PM69 °FPartly sunny.3 mph53%30.09 "Hg19 mi
11:00 AM68 °FScattered clouds.3 mph61%30.10 "Hg19 mi
10:00 AM66 °FPartly sunny.2 mph73%30.10 "Hg19 mi
9:00 AM62 °FScattered clouds.1 mph80%30.11 "Hg9 mi
8:00 AM59 °FScattered clouds.3 mph91%30.11 "Hg9 mi
7:00 AM54 °FPartly sunny.3 mph97%30.12 "Hg7 mi
6:00 AM53 °FFog.2 mph97%30.11 "Hg7 mi
5:00 AM53 °FFog.2 mph96%30.11 "Hg7 mi
4:00 AM54 °FCool.No wind95%30.11 "Hg12 mi
3:00 AM55 °FCool.2 mph95%30.11 "Hg11 mi
2:00 AM56 °FCool.5 mph95%30.11 "Hg5 mi
1:00 AM58 °FCool.No wind91%30.12 "Hg11 mi
12:00 AM60 °FPassing clouds.5 mph89%30.11 "Hg28 mi
11:00 PM
Sat, Jun 25
60 °FOvercast.8 mph87%30.10 "Hg9 mi
10:00 PM62 °FOvercast.9 mph83%30.08 "Hg9 mi
9:00 PM64 °FOvercast.12 mph81%30.06 "Hg9 mi
8:00 PM64 °FOvercast.14 mph86%30.03 "Hg6 mi
7:00 PM67 °FOvercast.12 mph77%30.01 "Hg25 mi
Weather by CustomWeather, © 2016

See weather overviewHow to use our weather pages